Terminal Aerodrome Forecast
Issued by NWS Kansas City/Pleasant Hill, MO

Home | Current Version | Previous Version | Text Only | Print | Product List | Glossary On
Versions: 1 2 3 4 5 6 7 8 9 10 11 12 13 14 15 16 17 18 19
000
FTUS43 KEAX 181759 AAA
TAFMCI
TAF AMD
KMCI 181759Z 1818/1918 33019G31KT P6SM SCT019 BKN090
     FM181900 32020G32KT P6SM SCT150
     FM182300 32009KT P6SM SKC
     FM191100 29006KT P6SM SKC=

USA.gov is the U.S. government's official web portal to all federal, state and local government web resources and services.